SONATE-2
1 59112U 24043Q   26226.41138325  .00031663  00000-0  34876-3 0  9996
2 59112  97.5590  20.5995 0004838 352.3722   7.7461 15.63066355136973
GRBBeta
1 60237U 24128C   26226.61717421  .00002174  00000-0  15736-3 0  9991
2 60237  61.9910  11.2057 0032606 147.5052 212.8057 15.06993167115079
Curium One
1 60242U 24128H   26226.59732504  .00004576  00000-0  26562-3 0  9990
2 60242  61.9802 358.7739 0031867 142.7583 217.5731 15.13258326115299
ROBUSTA-3A
1 60243U 24128J   26226.59585773  .00004700  00000-0  27877-3 0  9994
2 60243  61.9880   1.5800 0033674 140.1292 220.2287 15.12375934115252
CatSat
1 60246U 24125J   26226.54969578  .00053407  00000-0  51522-3 0  9990
2 60246  97.2018  80.1190 0015101 326.1786  33.8510 15.66190491116502
HYPERVIEW-1G (RS66S)
1 61772U 24199AP  26226.59754743  .01371486  13741-2  12151-2 0  9990
2 61772  97.2563 110.3152 0005516 175.9860 184.1471 16.13283789143948
AO-123
1 61781U 24199AY  26226.59885514  .00004703  00000-0  13414-3 0  9991
2 61781  97.2909  94.7486 0015471  98.0883 262.2117 15.36429059142892
LASARsat
1 62391U 24247Q   26226.56450675  .00022327  00000-0  39562-3 0  9990
2 62391  44.9730 293.2858 0009130 344.1960  15.8645 15.49893221 92360
CroCube
1 62394U 24247T   26226.54495132  .00026236  00000-0  42458-3 0  9999
2 62394  44.9702 289.6379 0009246 352.1064   7.9682 15.52356178 92408
JINJUSat 1B
1 63210U 25052A   26226.44827536  .00010097  00000-0  29803-3 0  9995
2 63210  97.3915 123.3304 0001779 186.1919 173.9303 15.35174221 79039
NUSHSAT 1
1 63211U 25052B   26226.25963838  .00013229  00000-0  35488-3 0  9997
2 63211  97.3894 123.9252 0001336 177.2097 182.9156 15.38089202 79067
TEVEL2-4
1 63213U 25052D   26226.24284815  .00011186  00000-0  31625-3 0  9998
2 63213  97.3815 122.7867 0000495 179.1036 181.0209 15.36499959 79027
TEVEL2-5
1 63214U 25052E   26226.46585796  .00011254  00000-0  32021-3 0  9992
2 63214  97.3812 122.9410 0000355 169.6817 190.4434 15.36298679 79050
TEVEL2-6
1 63215U 25052F   26226.60979775  .00011312  00000-0  32216-3 0  9994
2 63215  97.3815 123.0700 0000281 163.2637 196.8616 15.36266622 79073
TEVEL2-1
1 63217U 25052H   26226.20433723  .00010476  00000-0  30442-3 0  9999
2 63217  97.3792 122.2153 0000432 337.2310  22.8914 15.35656344 78993
TEVEL2-3
1 63218U 25052J   26226.52240162  .00011126  00000-0  32236-3 0  9994
2 63218  97.3794 122.5645 0000358   8.9440 351.1810 15.35732445 79045
TEVEL2-2
1 63219U 25052K   26225.68294446  .00008978  00000-0  26124-3 0  9995
2 63219  97.3794 121.6970 0000556 340.9002  19.2221 15.35657441 78915
TEVEL2-9
1 63237U 25052AD  26226.45508475  .00009911  00000-0  30792-3 0  9995
2 63237  97.3852 121.7127 0003900 309.6763  50.4135 15.33548918 78958
TEVEL2-7
1 63238U 25052AE  26226.50801365  .00009412  00000-0  29564-3 0  9997
2 63238  97.3855 121.6552 0003983 309.0124  51.0764 15.33210861 78957
TEVEL2-8
1 63239U 25052AF  26226.64733050  .00009778  00000-0  30713-3 0  9991
2 63239  97.3854 121.7696 0003983 310.4259  49.6636 15.33201188 78977
SPIRONE
1 66657U 25274H   26225.80054741  .00000851  00000-0  85602-4 0  9995
2 66657  97.7466 154.2738 0012011 174.7491 185.3857 14.93744707 38823
K-HERO
1 66660U 25274L   26225.78940216  .00000449  00000-0  47234-4 0  9999
2 66660  97.7474 154.4657 0013693 180.2398 179.8818 14.94145209 38832
SNUGLITE-III DURI
1 66661U 25274M   26226.37880340  .00000455  00000-0  47804-4 0  9997
2 66661  97.7472 155.0681 0014312 179.6910 180.4321 14.94165437 38928
SAKHACUBE-CHOLBON
1 67290U 25313AU  26226.47839497  .00005634  00000-0  22284-3 0  9996
2 67290  97.3903 300.8129 0010312 143.2208 216.9740 15.25822920 34863
RS95S (QMR-KWT-2)
1 67291U 25313AV  26226.20818810  .00008145  00000-0  30364-3 0  9992
2 67291  97.3898 300.8603 0009971 142.3106 217.8834 15.27650544 34845
Ten-Koh2
1 68261U 25241B   26225.91063465  .00004248  00000-0  18391-3 0  9991
2 68261  51.6587  44.7659 0005857 330.7296  29.3354 15.24502166 23718
JACK-002
1 68417U 26067B   26226.43287309  .00003555  00000-0  16815-3 0  9993
2 68417  97.4614 184.3449 0004084  81.3612 278.8086 15.20020408 20798
DISCO 2
1 68431U 26067R   26226.33161505  .00004006  00000-0  19001-3 0  9999
2 68431  97.4646 184.2377 0003709 119.3927 240.7678 15.19845389 20776
HADES-SA (SpinnyONE)
1 68446U 26067AG  26225.82422546  .00009349  00000-0  42629-3 0  9990
2 68446  97.4439 183.3458 0004544 215.2799 144.8136 15.20848329 20685
PARUS-6U1
1 68456U 26067AS  26226.59951290  .00002754  00000-0  13856-3 0  9992
2 68456  97.4600 184.1022 0004408 201.8155 158.2892 15.18052082 20798
SAL-E
1 68458U 26067AU  26226.44973316  .00003863  00000-0  19058-3 0  9993
2 68458  97.4524 183.8633 0004186 213.4298 146.6673 15.18497851 20772
FSI-SAT 2
1 68792U 26088A   26226.38294372  .00001679  00000-0  11540-3 0  9999
2 68792  97.5140  14.2229 0012764 268.3256  91.6510 15.07223183 17059
OrigamiSat 2
1 68795U 26088D   26226.37007301  .00007153  00000-0  44467-3 0  9992
2 68795  97.5136  14.5469 0014018 235.3144 124.6765 15.09868019 17076
ARICA 2
1 68796U 26088E   26226.39642340  .00001753  00000-0  11521-3 0  9998
2 68796  97.5139  14.4968 0014205 235.3855 124.6035 15.08818399 17075
WASEDA-SAT-ZERO-II
1 68797U 26088F   26226.38052663  .00002889  00000-0  18536-3 0  9995
2 68797  97.5131  14.5140 0014191 235.1168 124.8728 15.09193947 17077
MANGARO-II-Piscus
1 68798U 26088G   26226.36966854  .00001990  00000-0  12900-3 0  9991
2 68798  97.5143  14.5441 0017578 239.2942 120.6555 15.09132109 17077
CO-128
1 69872U 26156D   26226.46758566  .00000661  00000-0  72820-4 0  9993
2 69872  97.7478 126.2236 0003603  10.0469 350.0820 14.90759207  5681
MARINA
1 69920U 26156BD  26226.16705108  .00000907  00000-0  94864-4 0  9993
2 69920  97.7488 126.0061 0008507  38.6230 321.5596 14.92054016  5647
IO-86
1 40931U          26199.45381863  .00000000  00000-0  77536-4 0    07
2 40931   6.0006 322.6653 0012733 338.8432 273.6875 14.79294310    03
LILIUM-4                
1 71922C 26067AC  26089.50133053 -.00014632  00000+0 -74472-3 0    04
2 71922  97.4497  49.1617 0004341   5.9603 355.7042 15.16896692    16
